ZL3GL-4 Weather Reports


time (UTC)temp
C
wind
direction
speed
KPH
gust
KPH
rain 1hr
cm
rain 24hr
cm
rain mn
cm
humidity
%
barometer
mb
20260507184736 11 253 1.6 1.6 0.00 0.00 0.00 100 1002.3
20260507183332 11 169 0.0 0.0 0.00 0.00 0.00 100 1002.6
20260507181928 12 177 0.0 0.0 0.00 0.00 0.00 100 1002.6
20260507180530 12 201 4.8 6.4 0.00 0.00 0.00 100 1002.5
20260507175122 12 211 6.4 8.0 0.00 0.00 0.00 100 1002.6
20260507173720 12 246 4.8 4.8 0.00 0.00 0.00 100 1002.7
20260507172314 12 229 6.4 8.0 0.00 0.00 0.00 100 1002.7
20260507170912 12 188 8.0 9.7 0.00 0.00 0.00 100 1002.7
20260507165511 12 172 8.0 8.0 0.00 0.00 0.00 100 1002.6
20260507164109 12 240 8.0 6.4 0.00 0.00 0.00 100 1002.7
20260507162703 12 211 8.0 6.4 0.00 0.00 0.00 100 1002.9
20260507161305 12 242 8.0 9.7 0.00 0.00 0.00 100 1003.1
20260507155856 12 232 14.5 6.4 0.00 0.00 0.00 100 1003.3
20260507154451 12 229 8.0 8.0 0.00 0.00 0.00 100 1003.3
20260507151645 11 264 9.7 8.0 0.00 0.00 0.00 100 1003.2
20260507150241 11 263 3.2 4.8 0.00 0.00 0.00 100 1003.4
20260507143436 11 212 6.4 4.8 0.00 0.00 0.00 100 1003.6
20260507142032 11 212 4.8 1.6 0.00 0.00 0.00 100 1003.7
20260507140635 11 207 4.8 6.4 0.00 0.00 0.00 100 1003.7
20260507135226 11 260 8.0 4.8 0.00 0.00 0.00 100 1003.8
20260507133823 11 269 1.6 1.6 0.00 0.00 0.00 100 1003.7
20260507132424 11 330 3.2 3.2 0.00 0.00 0.00 100 1003.8
20260507131019 11 316 0.0 0.0 0.00 0.00 0.00 100 1004.0
20260507125613 11 263 0.0 0.0 0.00 0.00 0.00 100 1003.9
20260507124210 11 322 4.8 3.2 0.00 0.00 0.00 100 1003.8
20260507122806 11 284 4.8 4.8 0.00 0.00 0.00 100 1003.7
20260507121403 11 239 0.0 0.0 0.00 0.00 0.00 100 1003.7
20260507115959 11 243 1.6 1.6 0.00 0.00 0.00 100 1003.9
20260507114556 11 135 0.0 0.0 0.00 0.00 0.00 100 1003.8
20260507113152 12 238 1.6 0.0 0.00 0.00 0.00 100 1003.9
20260507111752 12 198 4.8 3.2 0.00 0.00 0.00 100 1003.9
20260507110346 12 188 3.2 3.2 0.00 0.00 0.00 100 1003.9
20260507104947 12 293 6.4 4.8 0.00 0.00 0.00 100 1004.0
20260507103541 12 307 4.8 4.8 0.00 0.00 0.00 100 1004.0
20260507102141 12 315 4.8 4.8 0.00 0.00 0.00 100 1004.1
20260507100735 12 290 4.8 6.4 0.00 0.00 0.00 100 1004.1
20260507093929 12 278 4.8 4.8 0.00 0.00 0.00 100 1004.1
20260507092525 12 338 4.8 8.0 0.00 0.00 0.00 100 1004.0
20260507091122 12 308 8.0 9.7 0.00 0.00 0.00 100 1004.0
20260507085715 13 336 9.7 12.9 0.00 0.00 0.00 100 1003.9
20260507084311 13 309 3.2 4.8 0.00 0.00 0.00 100 1004.1
20260507082908 13 287 6.4 4.8 0.00 0.00 0.00 100 1004.0
20260507080103 13 271 8.0 9.7 0.00 0.00 0.00 100 1004.3
20260507074658 13 271 8.0 6.4 0.00 0.00 0.00 100 1004.6
20260507073255 13 294 3.2 4.8 0.00 0.00 0.00 100 1004.6
20260507071851 13 329 1.6 0.0 0.00 0.00 0.00 100 1004.7
20260507070448 13 352 0.0 0.0 0.00 0.00 0.00 100 1004.8
20260507065043 13 352 0.0 0.0 0.00 0.00 0.00 100 1004.7
20260507063641 14 352 0.0 0.0 0.00 0.00 0.00 100 1004.6
20260507062236 14 352 0.0 0.0 0.00 0.00 0.00 100 1004.7
20260507060831 14 14 0.0 0.0 0.00 0.00 0.00 100 1004.7
20260507055429 15 284 3.2 3.2 0.00 0.00 0.00 100 1004.8
20260507054026 15 248 0.0 0.0 0.00 0.00 0.00 99 1005.0
20260507052622 16 169 0.0 0.0 0.00 0.00 0.00 99 1005.2
20260507051217 16 110 3.2 3.2 0.00 0.00 0.00 97 1005.4
20260507045813 17 11 1.6 1.6 0.00 0.00 0.00 97 1005.5
20260507044411 17 248 1.6 0.0 0.00 0.00 0.00 96 1005.8
20260507043007 17 17 3.2 3.2 0.00 0.00 0.00 95 1005.9
20260507041603 18 325 6.4 4.8 0.00 0.00 0.00 97 1005.7
20260507040200 17 305 4.8 9.7 0.00 0.00 0.00 97 1005.2
20260507034756 17 276 3.2 0.0 0.00 0.00 0.00 97 1005.2
20260507033352 17 354 1.6 6.4 0.00 0.00 0.00 96 1004.9
20260507031948 17 104 1.6 0.0 0.00 0.00 0.00 96 1004.9
20260507030544 16 305 3.2 1.6 0.00 0.00 0.00 95 1005.1
20260507025142 17 357 3.2 3.2 0.00 0.00 0.00 93 1005.6
20260507023738 17 352 4.8 3.2 0.00 0.00 0.00 91 1006.0
20260507022335 17 24 4.8 6.4 0.00 0.00 0.00 85 1006.3
20260507020933 17 59 0.0 0.0 0.00 0.00 0.00 85 1006.3
20260507015530 17 58 0.0 0.0 0.00 0.00 0.00 81 1006.1
20260507014126 17 212 1.6 1.6 0.00 0.00 0.00 82 1006.0
20260507012723 17 167 4.8 4.8 0.00 0.00 0.00 85 1006.0
20260507011319 17 203 3.2 3.2 0.00 0.00 0.00 85 1006.2
20260507005917 16 141 3.2 0.0 0.00 0.00 0.00 85 1006.4
20260507004513 16 224 4.8 6.4 0.00 0.00 0.00 85 1006.1
20260507003109 16 270 8.0 8.0 0.00 0.00 0.00 83 1006.7
20260507000303 16 128 0.0 0.0 0.00 0.00 0.00 79 1006.8
20260506234900 16 181 3.2 3.2 0.00 0.00 0.00 76 1007.2
20260506232057 16 152 1.6 0.0 0.00 0.00 0.00 73 1007.5
20260506230650 16 134 6.4 6.4 0.00 0.00 0.00 81 1007.5
20260506225251 15 149 6.4 4.8 0.00 0.00 0.00 80 1007.7
20260506223848 15 75 1.6 3.2 0.00 0.00 0.00 83 1008.1
20260506222445 15 86 0.0 1.6 0.00 0.00 0.00 81 1008.2
20260506221039 15 131 3.2 3.2 0.00 0.00 0.00 84 1008.5
20260506215636 13 249 0.0 0.0 0.00 0.00 0.00 94 1008.5
20260506212830 11 270 0.0 1.6 0.00 0.00 0.00 99 1009.0
20260506211428 11 93 0.0 0.0 0.00 0.00 0.00 100 1009.3
20260506210024 11 93 0.0 0.0 0.00 0.00 0.00 100 1009.7
20260506204620 11 218 0.0 1.6 0.00 0.00 0.00 100 1009.9
20260506203220 11 132 1.6 0.0 0.00 0.00 0.00 100 1009.9
20260506201815 10 236 1.6 0.0 0.00 0.00 0.00 99 1010.0
20260506200411 10 224 0.0 0.0 0.00 0.00 0.00 99 1010.1
20260506195008 10 246 1.6 0.0 0.00 0.00 0.00 99 1010.3
20260506193607 10 271 1.6 1.6 0.00 0.00 0.00 99 1010.3
20260506192201 10 267 1.6 1.6 0.00 0.00 0.00 99 1010.5
20260506190756 10 295 3.2 0.0 0.00 0.00 0.00 98 1010.8